Regional Weather Roundup
Issued by NWS

Home | Current Version | Previous Version | Text Only | Print | Product List | Glossary Off
Versions: 1 2 3 4 5 6 7 8 9 10 11 12 13 14 15 16 17 18 19 20 21 22 23 24 25 26 27

403
ASUS45 KSLC 211510
RWRUT

UTAH REGIONAL WEATHER ROUNDUP
NATIONAL WEATHER SERVICE SALT LAKE CITY UT
900 AM MDT THU MAY 21 2015

UTZ001>011-023>025-211600-

NORTHERN UTAH

CITY           SKY/WX    TMP DP  RH WIND       PRES   REMARKS
BRIGHAM CITY   SUNNY     55  44  67 N8        30.00F
HILL AFB       MOSUNNY   53  44  69 E14G30    30.00S
LOGAN          SUNNY     53  43  68 CALM      30.02F
OGDEN          SUNNY     58  43  57 CALM      29.99S
PROVO AIRPORT  NOT AVBL
SALT LAKE CITY PTSUNNY   56  42  59 SE3       29.98F
VERNAL         MOSUNNY   54  42  64 E3        30.09S
WENDOVER       SUNNY     57  43  58 CALM      29.99S
HEBER CITY     MOSUNNY   45  39  81 CALM      30.08F
WEST JORDAN    MOSUNNY   55  46  71 CALM      30.00F

$$

UTZ012>022-026-027-211600-

SOUTHERN/CENTRAL UTAH

CITY           SKY/WX    TMP DP  RH WIND       PRES   REMARKS
BLANDING       CLOUDY    57  40  52 S8        30.15R
BRYCE CANYON   CLOUDY    45  31  58 CALM      30.10S
CEDAR CITY     CLOUDY    50  36  58 CALM      29.97F
DELTA          PTSUNNY   50  43  75 CALM      29.98S
HANKSVILLE     CLOUDY    54  34  47 NW6       30.01S
MILFORD        PTSUNNY   48  38  68 CALM      29.98S
MOAB/CYNLANDS  SUNNY     61  38  42 SE7       29.97S
PRICE          PTSUNNY   59  36  42 NE12      30.03S
ST GEORGE      MOSUNNY   61  28  29 N3        29.93R
KANAB          CLOUDY    54  32  43 N7        30.03S

$$

REGIONAL REPORTS     COLORADO/ARIZONA

CITY           SKY/WX    TMP DP  RH WIND       PRES   REMARKS
CRAIG, CO      MOSUNNY   49  39  68 NE3       30.13F
GRAND JUNCTION CLOUDY    55  39  54 S8        30.03F
RIFLE          PTSUNNY   50  40  68 W3        30.09F
MONTROSE       CLOUDY    54  39  57 CALM      30.10S
CORTEZ         SUNNY     60  41  49 VRB3      30.09F
PAGE, AZ       NOT AVBL
GRAND CANYON   CLOUDY    52  30  43 S6        30.07S
KINGMAN        CLOUDY    66  25  21 SE12      29.90F
FLAGSTAFF      CLOUDY    50  32  50 N3        30.10R

$$

REGIONAL REPORTS    NEVADA/IDAHO/WYOMING

CITY           SKY/WX    TMP DP  RH WIND       PRES   REMARKS
LAS VEGAS, NV  PTSUNNY   71  30  21 SW7       29.80R
ELY            CLOUDY    45  34  65 CALM      30.03S
ELKO           SUNNY     52  41  66 NE3       29.97F
POCATELLO, ID  PTSUNNY   51  49  92 CALM      30.03R
BURLEY         MOSUNNY   53  47  79 E3        29.98R
EVANSTON, WY   CLOUDY    42  39  89 NE16      30.11F
ROCK SPRINGS   CLOUDY    42  39  89 E8        30.15S
KEMMERER       CLOUDY    41  37  87 NE13      30.15S

$$



USA.gov is the U.S. government's official web portal to all federal, state and local government web resources and services.